Marshfield, WI

6:55 PM CST on February 26, 2017 (GMT -0600)
Marshfield Municipal

Weather History for KMFI - December, 2013

Change the Weather History Date:

Friday, December 27, 2013

  Actual Average Record
Temperature  
Mean Temperature 22 °F -  
Max Temperature 36 °F 24 °F 49 °F (1936)
Min Temperature 7 °F 5 °F -26 °F (1933)
Degree Days  
Heating Degree Days 44    
Moisture  
Dew Point 15 °F    
Average Humidity 85    
Maximum Humidity 92    
Minimum Humidity 67    
Precipitation  
Precipitation 0.00 in - - ()
Sea Level Pressure  
Sea Level Pressure 30.10 in    
Wind  
Wind Speed 4 mph (SSW)    
Max Wind Speed 14 mph    
Max Gust Speed -    
Visibility 5 miles    
Events Fog    
Averages and records for this station are not official NWS values.
T = Trace of Precipitation, MM = Missing Value Source: NWS Daily Summary

Daily Weather History Graph

Daily Weather History Graph

Search for Another Location

Airport or City:

Trip Planner

Search our weather history database for the weather conditions in past years. The results will help you decide how hot, cold, wet, or windy it might be!

Date:

Astronomy

Dec. 27, 2013 Rise Set
Actual Time 7:37 AM CST 4:27 PM CST
Civil Twilight 7:03 AM CST 5:00 PM CST
Nautical Twilight 6:26 AM CST 5:37 PM CST
Astronomical Twilight 5:51 AM CST 6:13 PM CST
Moon 2:00 AM CST 12:45 PM CST
Length of Visible Light 9h 57m
Length of Day
8h 50m
Waning Crescent, 28% of the Moon is Illuminated
Dec 27
Waning Crescent
Jan 1
New
Jan 7
First Quarter
Jan 15
Full
Jan 23
Last Quarter

Hourly Weather History & Observations

Time (CST) Temp. Windchill Dew Point Humidity Pressure Visibility Wind Dir Wind Speed Gust Speed Precip Events Conditions
12:01 AM 12.0 °F - 8.1 °F 84% 30.14 in 3.0 mi Calm Calm - N/A   Clear
12:15 AM 10.0 °F - 7.0 °F 87% 30.14 in 1.8 mi Calm Calm - N/A   Clear
12:39 AM 10.9 °F - 8.1 °F 88% 30.14 in 3.0 mi Calm Calm - N/A   Clear
12:54 AM 10.0 °F - 8.1 °F 92% 30.22 in 5.0 mi Calm Calm - N/A   Partly Cloudy
1:07 AM 8.1 °F - 6.1 °F 92% 30.14 in 5.0 mi Calm Calm - N/A   Mostly Cloudy
1:47 AM 8.1 °F - 5.0 °F 87% 30.14 in 5.0 mi Calm Calm - N/A   Scattered Clouds
1:54 AM 8.1 °F 1.4 °F 5.0 °F 87% 30.23 in 5.0 mi ENE 3.5 mph - N/A   Partly Cloudy
2:43 AM 7.0 °F - 1.9 °F 80% 30.14 in 4.0 mi Calm Calm - N/A   Haze
2:54 AM 8.1 °F - 5.0 °F 87% 30.23 in 4.0 mi Calm Calm - N/A   Overcast
3:50 AM 10.4 °F - 6.8 °F 85% 30.13 in 0.8 mi Calm Calm - N/A   Haze
3:54 AM 10.9 °F - 6.1 °F 81% 30.22 in 0.5 mi Calm Calm - N/A   Haze
4:54 AM 12.9 °F - 10.9 °F 92% 30.21 in 1.0 mi Calm Calm - N/A   Mist
5:02 AM 12.9 °F - 10.9 °F 92% 30.14 in 0.2 mi Calm Calm - N/A Fog Light Freezing Fog
5:54 AM 14.0 °F - 12.0 °F 92% 30.23 in 0.2 mi Calm Calm - N/A Fog Light Freezing Fog
6:41 AM 14.0 °F 3.9 °F 10.9 °F 88% 30.12 in 1.2 mi SE 6.9 mph - N/A   Overcast
6:50 AM 15.8 °F 6.1 °F 12.2 °F 86% 30.12 in 3.0 mi SE 6.9 mph - N/A   Overcast
6:54 AM 16.0 °F 7.4 °F 12.9 °F 88% 30.19 in 3.0 mi SSE 5.8 mph - N/A   Overcast
7:02 AM 16.0 °F 5.3 °F 14.0 °F 92% 30.12 in 4.0 mi South 8.1 mph - N/A   Overcast
7:22 AM 14.0 °F 2.9 °F 12.0 °F 92% 30.13 in 3.0 mi South 8.1 mph - N/A   Overcast
7:32 AM 14.0 °F 3.9 °F 12.0 °F 92% 30.13 in 2.0 mi South 6.9 mph - N/A   Overcast
7:39 AM 14.0 °F 3.9 °F 10.9 °F 88% 30.13 in 1.8 mi South 6.9 mph - N/A   Overcast
7:54 AM 14.0 °F 2.9 °F 12.0 °F 92% 30.21 in 2.0 mi South 8.1 mph - N/A   Overcast
8:29 AM 12.9 °F 3.8 °F 10.0 °F 88% 30.13 in 2.0 mi South 5.8 mph - N/A   Partly Cloudy
8:54 AM 14.0 °F 6.5 °F 10.9 °F 88% 30.20 in 2.0 mi SSE 4.6 mph - N/A   Clear
9:54 AM 17.1 °F 5.8 °F 14.0 °F 88% 30.17 in 2.5 mi South 9.2 mph - N/A   Clear
10:13 AM 18.0 °F 12.7 °F 16.0 °F 92% 30.09 in 2.5 mi South 3.5 mph - N/A   Partly Cloudy
10:54 AM 21.0 °F 14.6 °F 19.0 °F 92% 30.15 in 2.5 mi SW 4.6 mph - N/A   Scattered Clouds
11:06 AM 21.9 °F 12.5 °F 19.0 °F 89% 30.07 in 3.0 mi SSW 8.1 mph - N/A   Partly Cloudy
11:54 AM 25.0 °F 15.5 °F 21.0 °F 85% 30.09 in 5.0 mi SSW 9.2 mph - N/A   Clear
12:54 PM 28.0 °F 18.1 °F 23.0 °F 81% 30.05 in 7.0 mi SSW 11.5 mph - N/A   Partly Cloudy
1:54 PM 32.0 °F 23.0 °F 25.0 °F 75% 29.98 in 9.0 mi South 11.5 mph - N/A   Clear
2:54 PM 35.1 °F 26.9 °F 26.1 °F 70% 29.94 in 9.0 mi SSW 11.5 mph - N/A   Mostly Cloudy
3:54 PM 36.0 °F 28.5 °F 26.1 °F 67% 29.94 in 10.0 mi SW 10.4 mph - N/A   Clear
4:54 PM 35.1 °F 25.9 °F 26.1 °F 70% 29.93 in 10.0 mi SW 13.8 mph - N/A   Clear
5:54 PM 33.1 °F 25.5 °F 25.0 °F 72% 29.94 in 10.0 mi WSW 9.2 mph - N/A   Clear
6:54 PM 32.0 °F 23.6 °F 25.0 °F 75% 29.95 in 10.0 mi WSW 10.4 mph - N/A   Clear
7:54 PM 30.9 °F 22.2 °F 25.0 °F 79% 29.97 in 10.0 mi West 10.4 mph - N/A   Clear
8:54 PM 30.9 °F 23.5 °F 25.0 °F 79% 29.98 in 10.0 mi West 8.1 mph - N/A   Clear
9:54 PM 30.0 °F 22.4 °F 25.0 °F 82% 29.99 in 10.0 mi West 8.1 mph - N/A   Clear
10:54 PM 30.0 °F 22.4 °F 25.0 °F 82% 29.99 in 10.0 mi West 8.1 mph - N/A   Clear
11:54 PM 28.0 °F 20.0 °F 25.0 °F 88% 30.01 in 10.0 mi WSW 8.1 mph - N/A   Clear